Zurück zum Katalog

THORAD AGENA D DEB

AktivSSO
NORAD 5692·DEBRIS·🇺🇸 United States

Gestartet Apr 8, 1970 von Vandenberg Space Force Base

Loading…

Nächste Überflüge (nächste 24 Stunden)

TLE

AktuellSource: Space-Track

Epoche: Sep 14, 2026, 00:11 UTC

1 05692U 70025LX  26257.00795845  .00000149  00000-0  26645-3 0  9996
2 05692  99.3842 279.0742 0114733 132.4807 258.4389 13.54382040576405

Verfolge THORAD AGENA D DEB in Echtzeit mit AllMySat

Download on the App Store